When you browse on this site, cookies collect data to enhance your experience and personalize the content and advertising you see.
Visit our Privacy Policy to learn more. By continuing to use the site, you agree to this use of cookies and data.
  • en Suisse
  • Liste des pays
  • À 7 jours
  • Température de l'eau
  • Carte satellitaire
  • Carte météo
  • Widgets météo
  • user-avatar
    Se connecter

    Météo par heure à Pichkiryaevo

    Ce jour, 20 Février, Mercredi

    Heure Température Précipitation Vent Pression Humidité
    00:00 -8°C° 0 mm 4 m/s 746 mmHg 87%
    01:00 -8°C° 0 mm 4 m/s 746 mmHg 86%
    02:00 -8°C° 0 mm 4 m/s 745 mmHg 86%
    03:00 -9°C° 0 mm 4 m/s 745 mmHg 85%
    04:00 -9°C° 0 mm 4 m/s 745 mmHg 84%
    05:00 -9°C° 0 mm 4 m/s 744 mmHg 82%
    06:00 -10°C° 0 mm 5 m/s 744 mmHg 81%
    07:00 -8°C° 0 mm 5 m/s 743 mmHg 82%
    08:00 -8°C° 0 mm 5 m/s 743 mmHg 82%
    09:00 -8°C° 0 mm 5 m/s 742 mmHg 83%
    10:00 -7°C° 0 mm 5 m/s 742 mmHg 83%
    11:00 -6°C° 0 mm 6 m/s 742 mmHg 83%
    12:00 -5°C° 0 mm 6 m/s 742 mmHg 84%
    13:00 -4°C° 0.1 mm 6 m/s 741 mmHg 83%
    14:00 -4°C° 0.1 mm 5 m/s 741 mmHg 83%
    15:00 -2°C° 0.1 mm 5 m/s 741 mmHg 83%
    16:00 -2°C° 0 mm 5 m/s 740 mmHg 85%
    17:00 -2°C° 0 mm 5 m/s 740 mmHg 86%
    18:00 -2°C° 0 mm 5 m/s 740 mmHg 88%
    19:00 -2°C° 0.1 mm 5 m/s 740 mmHg 88%
    20:00 -2°C° 0.1 mm 5 m/s 740 mmHg 89%
    21:00 -2°C° 0.1 mm 5 m/s 740 mmHg 90%
    22:00 -2°C° 0.1 mm 5 m/s 739 mmHg 90%
    23:00 -2°C° 0.1 mm 4 m/s 739 mmHg 91%

    Demain, 21 Février, Jeudi

    Heure Température Précipitation Vent Pression Humidité
    00:00 -2°C° 0.1 mm 4 m/s 739 mmHg 91%
    01:00 -2°C° 0 mm 4 m/s 738 mmHg 92%
    02:00 -2°C° 0 mm 4 m/s 738 mmHg 92%
    03:00 -2°C° 0 mm 4 m/s 738 mmHg 92%
    04:00 -2°C° 0 mm 4 m/s 737 mmHg 92%
    05:00 -2°C° 0 mm 4 m/s 736 mmHg 92%
    06:00 -2°C° 0 mm 4 m/s 736 mmHg 92%
    07:00 -2°C° 0.1 mm 4 m/s 736 mmHg 91%
    08:00 -2°C° 0.1 mm 4 m/s 735 mmHg 90%
    09:00 -1°C° 0.1 mm 5 m/s 735 mmHg 89%
    10:00 -1°C° 0.3 mm 5 m/s 735 mmHg 89%
    11:00 -1°C° 0.3 mm 5 m/s 735 mmHg 89%
    12:00 -1°C° 0.3 mm 5 m/s 735 mmHg 89%
    13:00 -1°C° 0.1 mm 4 m/s 735 mmHg 89%
    14:00 -1°C° 0.1 mm 4 m/s 735 mmHg 88%
    15:00 0°C° 0.1 mm 3 m/s 735 mmHg 87%
    16:00 -1°C° 0 mm 3 m/s 735 mmHg 87%
    17:00 -2°C° 0 mm 3 m/s 735 mmHg 87%
    18:00 -3°C° 0 mm 2 m/s 735 mmHg 87%
    19:00 -4°C° 0 mm 2 m/s 735 mmHg 89%
    20:00 -5°C° 0 mm 2 m/s 735 mmHg 91%
    21:00 -4°C° 0 mm 1 m/s 735 mmHg 93%
    22:00 -4°C° 0 mm 1 m/s 735 mmHg 94%
    23:00 -4°C° 0 mm 1 m/s 735 mmHg 96%

    Après-demain, 22 Février, Vendredi

    Heure Température Précipitation Vent Pression Humidité
    00:00 -4°C° 0 mm 1 m/s 735 mmHg 97%
    01:00 -6°C° 0.2 mm 2 m/s 736 mmHg 95%
    02:00 -7°C° 0.2 mm 3 m/s 736 mmHg 93%
    03:00 -8°C° 0.2 mm 4 m/s 736 mmHg 91%
    04:00 -10°C° 0.1 mm 5 m/s 736 mmHg 90%
    05:00 -11°C° 0.1 mm 5 m/s 737 mmHg 88%
    06:00 -11°C° 0.1 mm 5 m/s 737 mmHg 87%
    07:00 -12°C° 0.1 mm 5 m/s 737 mmHg 86%
    08:00 -12°C° 0.1 mm 5 m/s 738 mmHg 85%
    09:00 -12°C° 0.1 mm 5 m/s 739 mmHg 84%
    10:00 -12°C° 0.1 mm 5 m/s 739 mmHg 82%
    11:00 -12°C° 0.1 mm 5 m/s 740 mmHg 80%
    12:00 -12°C° 0.1 mm 5 m/s 740 mmHg 78%
    13:00 -12°C° 0.1 mm 5 m/s 741 mmHg 77%
    14:00 -12°C° 0.1 mm 5 m/s 741 mmHg 77%
    15:00 -11°C° 0.1 mm 4 m/s 742 mmHg 76%
    16:00 -11°C° 0.1 mm 4 m/s 742 mmHg 78%
    17:00 -11°C° 0.1 mm 4 m/s 743 mmHg 80%
    18:00 -12°C° 0.1 mm 4 m/s 744 mmHg 83%
    19:00 -12°C° 0 mm 4 m/s 744 mmHg 84%
    20:00 -14°C° 0 mm 4 m/s 745 mmHg 85%
    21:00 -14°C° 0 mm 4 m/s 745 mmHg 85%
    22:00 -14°C° 0.1 mm 4 m/s 746 mmHg 86%
    23:00 -14°C° 0.1 mm 4 m/s 746 mmHg 87%

    23 Février, Samedi

    Heure Température Précipitation Vent Pression Humidité
    00:00 -13°C° 0.1 mm 3 m/s 747 mmHg 88%
    01:00 -13°C° 0.1 mm 3 m/s 747 mmHg 88%
    02:00 -13°C° 0.1 mm 3 m/s 748 mmHg 89%
    03:00 -12°C° 0.1 mm 3 m/s 749 mmHg 89%
    04:00 -12°C° 0.1 mm 3 m/s 749 mmHg 89%
    05:00 -12°C° 0.1 mm 3 m/s 750 mmHg 88%
    06:00 -12°C° 0.1 mm 3 m/s 750 mmHg 88%
    07:00 -13°C° 0.1 mm 3 m/s 751 mmHg 87%
    08:00 -13°C° 0.1 mm 3 m/s 752 mmHg 86%
    09:00 -13°C° 0.1 mm 3 m/s 752 mmHg 85%
    10:00 -12°C° 0.1 mm 3 m/s 753 mmHg 83%
    11:00 -12°C° 0.1 mm 3 m/s 753 mmHg 81%
    12:00 -12°C° 0.1 mm 3 m/s 754 mmHg 79%
    13:00 -12°C° 0 mm 3 m/s 754 mmHg 79%
    14:00 -10°C° 0 mm 3 m/s 754 mmHg 78%
    15:00 -9°C° 0 mm 2 m/s 755 mmHg 78%
    16:00 -10°C° 0 mm 2 m/s 755 mmHg 81%
    17:00 -10°C° 0 mm 2 m/s 755 mmHg 85%
    18:00 -12°C° 0 mm 2 m/s 756 mmHg 89%
    19:00 -13°C° 0 mm 2 m/s 756 mmHg 90%
    20:00 -11°C° 0 mm 1 m/s 756 mmHg 92%
    21:00 -12°C° 0 mm 1 m/s 756 mmHg 93%
    22:00 -12°C° 0 mm 1 m/s 757 mmHg 94%
    23:00 -12°C° 0 mm 1 m/s 757 mmHg 94%

    24 Février, Dimanche

    Heure Température Précipitation Vent Pression Humidité
    00:00 -13°C° 0 mm 1 m/s 757 mmHg 95%
    01:00 -13°C° 0 mm 1 m/s 757 mmHg 95%
    02:00 -13°C° 0 mm 1 m/s 757 mmHg 95%
    03:00 -14°C° 0 mm 1 m/s 757 mmHg 95%
    04:00 -14°C° 0 mm 1 m/s 757 mmHg 95%
    05:00 -14°C° 0 mm 1 m/s 757 mmHg 95%
    06:00 -14°C° 0 mm 1 m/s 757 mmHg 95%
    07:00 -13°C° 0 mm 1 m/s 757 mmHg 93%
    08:00 -13°C° 0 mm 1 m/s 758 mmHg 92%
    09:00 -12°C° 0 mm 1 m/s 758 mmHg 90%
    10:00 -11°C° 0 mm 1 m/s 758 mmHg 87%
    11:00 -10°C° 0 mm 1 m/s 758 mmHg 83%
    12:00 -8°C° 0 mm 1 m/s 758 mmHg 80%
    13:00 -8°C° 0 mm 1 m/s 758 mmHg 81%
    14:00 -9°C° 0 mm 2 m/s 758 mmHg 82%
    15:00 -8°C° 0 mm 2 m/s 757 mmHg 83%
    16:00 -9°C° 0 mm 2 m/s 757 mmHg 86%
    17:00 -10°C° 0 mm 2 m/s 757 mmHg 89%
    18:00 -10°C° 0 mm 1 m/s 757 mmHg 93%
    19:00 -13°C° 0 mm 2 m/s 757 mmHg 93%
    20:00 -13°C° 0 mm 2 m/s 757 mmHg 93%
    21:00 -14°C° 0 mm 2 m/s 757 mmHg 94%
    22:00 -14°C° 0 mm 2 m/s 757 mmHg 92%
    23:00 -15°C° 0 mm 2 m/s 757 mmHg 90%

    25 Février, Lundi

    Heure Température Précipitation Vent Pression Humidité
    00:00 -15°C° 0 mm 2 m/s 757 mmHg 88%
    01:00 -15°C° 0 mm 2 m/s 756 mmHg 89%
    02:00 -15°C° 0 mm 2 m/s 756 mmHg 89%
    03:00 -14°C° 0 mm 2 m/s 756 mmHg 90%
    04:00 -14°C° 0 mm 2 m/s 755 mmHg 91%
    05:00 -13°C° 0 mm 2 m/s 755 mmHg 92%
    06:00 -13°C° 0 mm 2 m/s 754 mmHg 93%
    07:00 -13°C° 0 mm 3 m/s 754 mmHg 93%
    08:00 -12°C° 0 mm 3 m/s 753 mmHg 93%
    09:00 -12°C° 0 mm 3 m/s 753 mmHg 92%
    10:00 -10°C° 0 mm 3 m/s 752 mmHg 91%
    11:00 -9°C° 0 mm 4 m/s 752 mmHg 90%
    12:00 -8°C° 0 mm 4 m/s 751 mmHg 89%
    13:00 -7°C° 0 mm 4 m/s 750 mmHg 89%
    14:00 -7°C° 0 mm 4 m/s 750 mmHg 89%
    15:00 -6°C° 0 mm 5 m/s 749 mmHg 89%
    16:00 -6°C° 0.1 mm 5 m/s 748 mmHg 89%
    17:00 -5°C° 0.1 mm 4 m/s 747 mmHg 89%
    18:00 -5°C° 0.1 mm 4 m/s 747 mmHg 90%
    19:00 -5°C° 0.1 mm 4 m/s 746 mmHg 91%
    20:00 -5°C° 0.1 mm 4 m/s 745 mmHg 92%
    21:00 -5°C° 0.1 mm 4 m/s 745 mmHg 93%
    22:00 -5°C° 0.2 mm 4 m/s 744 mmHg 93%
    23:00 -5°C° 0.2 mm 3 m/s 744 mmHg 94%
    Voir plus